Location: Home
(42.5358°N, 72.7383°W)
Time: 23:53:52
(UTC-05:00)

Vanguard 1 - Pass Details

Date: 05 December 2021
Orbit: 652 x 3830 km, 34.2° (Epoch: 21 January)

Event Time Altitude Azimuth Distance (km) Brightness Sun altitude
Rises 00:09:58 0° 244° (WSW) 7,231 - -69.0°
Reaches altitude 10° 00:14:27 10° 241° (WSW) 6,477 - -68.7°
Maximum altitude 00:36:47 64° 167° (SSE) 4,042 - -66.8°
Exits shadow 00:48:36 35° 102° (ESE) 4,698 13.3 -65.5°
Drops below altitude 10° 00:56:47 10° 92° (E) 5,905 14.1 -64.5°
Sets 01:00:37 0° 90° (E) 6,597 14.5 -64.0°
